SCP
0 -0 -0 -0 -0 -0 -0 -0 -0 -0 0 0 0 0 0 0 0 0 0 0 -0 -0 -0 -0 0 -0 0 -0 -0 -0 -0 -0 -0 -0 -0 -0 -0 -0 -0 -0 -0 -0 -0
0 -0 -0 -0 -0 -0 -0 -0 -0 -0 0 0 0 0 0 0 0 -0 0 0 -0 -0 0 -0 0 0 0 0 -0 -0 -0 -0 -0 -0 -0 -0 -0 -0 -0 -0 -0 -0 -0
0 0 0 0 -0 -0 -0 -0 -0 -0 -0 0 0 0 0 0 0 0 0 0 0 0 -0 -0 -0 0 0 0 -0 -0 -0 -0 -0 -0 -0 -0 -0 -0 -0 -0 -0 -0 -0
0 0 0 0 -0 0 -0 -0 -0 -0 0 -0 -0 0 0 0 0 0 0 0 0 0 0 0 0 0 0 0 0 -0 -0 -0 -0 -0 -0 -0 -0 -0 -0 -0 -0 -0 -0
0 0 0 -0 0 0 0 0 0 0 0 0 0 0 0 0 0 0 0 0 0 0 0 0 0 -0 0 0 0 0 0 -0 -0 -0 -0 -0 -0 -0 -0 -0 -0 -0 -0
0 -0 -0 -0 0 0 0 0 0 0 0 0 0 0 0 0 0 0 0 0 0 0 0 0 0 0 0 -0 0 0 0 0 -0 -0 -0 -0 -0 -0 -0 -0 -0 -0 -0
0 0 -0 -0 0 0 0 0 0 0 0 0 0 0 0 0 0 0 0 0 0 0 0 0 0 0 0 -0 0 0 0 0 0 -0 -0 -0 -0 -0 0 -0 -0 -0 -0
0 -0 -0 -0 0 -0 0 0 0 0 0 0 0 0 0 0 0 0 0 0 0 0 0 0 0 0 0 0 0 0 -0 -0 0 -0 -0 0 0 0 0 0 0 0 0
-0 -0 -0 0 -0 -0 -0 -0 0 0 0 0 0 0 0 0 0 0 0 0 0 0 0 0 0 0 0 0 0 0 -0 0 -0 0 0 0 0 0 0 0 0 0 0
-0 -0 -0 0 0 -0 -0 -0 0 0 0 0 0 0 0 0 0 0 0 0 0 0 0 0 0 0 0 0 0 0 0 0 0 0 0 0 0 0 0 0 0 0 0
0 0 0 0 0 -0 -0 0 0 0 1 0 0 0 0 0 1 1 0 0 0 0 0 0 0 0 0 0 1 0 0 0 0 0 0 0 0 0 0 0 0 0 0
0 0 0 0 0 -0 -0 0 0 0 0 1 0 0 0 0 1 1 1 0 0 0 0 0 1 1 1 1 1 0 0 0 0 0 0 0 0 0 0 0 0 0 0
0 0 -0 -0 -0 0 0 0 0 0 1 1 1 1 1 1 1 1 2 1 1 1 1 1 0 1 1 1 1 1 1 0 0 0 0 0 1 1 0 0 0 0 0
0 -0 0 0 0 0 0 0 1 1 2 2 1 1 1 1 1 2 2 2 2 2 1 1 1 1 1 1 1 1 1 1 1 0 0 0 0 1 1 0 0 0 0
0 0 0 1 2 2 2 2 1 2 2 2 2 2 2 2 2 2 2 4 3 3 1 1 1 1 1 1 2 1 1 1 1 1 0 0 0 0 0 1 0 0 0
1 1 1 2 2 2 2 3 2 2 2 2 3 2 2 3 3 3 3 4 4 4 2 1 1 1 1 1 0 0 1 1 0 0 1 0 0 0 0 0 0 0 0
2 2 3 3 3 4 3 3 2 2 2 2 2 2 2 3 4 5 4 4 4 6 4 1 1 1 1 0 0 1 1 1 1 0 0 0 0 0 0 0 0 0 0
3 2 2 2 2 1 1 1 1 2 2 2 2 3 3 4 5 5 6 4 4 6 5 3 3 1 0 1 1 1 1 1 0 1 0 0 0 0 0 0 0 0 0
0 0 0 0 0 0 0 0 0 1 1 1 1 2 2 4 4 6 6 6 6 6 6 4 2 2 1 1 1 1 1 1 1 0 0 0 0 0 0 0 0 0 0
0 0 0 0 0 0 0 0 0 0 0 0 1 2 2 3 3 5 5 6 6 6 6 5 4 2 2 2 1 0 0 0 0 0 0 0 0 0 0 0 0 0 0
0 0 0 0 0 0 0 0 0 0 0 0 0 0 1 2 3 3 6 6 6 5 5 4 4 3 2 1 0 1 0 0 0 0 0 0 0 0 0 0 0 0 0
0 0 0 0 0 0 0 0 0 0 0 0 0 0 0 1 1 1 2 1 2 4 3 3 2 2 2 3 1 0 0 0 0 0 0 0 0 0 0 0 0 0 0
0 0 0 0 0 0 0 0 0 0 0 0 0 0 0 0 0 1 1 1 1 1 2 3 2 2 2 2 1 0 0 0 0 0 0 0 0 0 0 0 0 0 0
0 0 0 0 0 0 0 0 0 0 0 0 0 0 0 0 1 1 1 1 1 1 1 1 1 1 1 1 1 1 0 0 0 0 0 0 0 0 0 0 0 0 0
0 0 0 0 0 0 0 0 0 0 0 0 0 0 0 0 0 0 1 1 1 1 0 1 1 1 1 0 1 0 0 0 0 0 0 0 0 0 0 0 0 0 0
0 0 0 0 0 0 0 0 0 0 0 0 0 0 0 0 0 0 0 1 1 1 1 0 0 0 0 0 0 0 0 0 0 0 0 0 0 0 0 0 0 0 0
Wind_Speed_500mb
21 20 17 18 19 18 19 20 19 18 20 17 18 21 23 27 25 27 28 27 28 39 37 30 36 41 30 32 29 31 27 25 26 28 31 34 35 33 31 29 35 34 42
11 13 17 21 24 22 20 19 20 17 22 25 24 25 28 31 32 27 27 25 26 24 35 38 33 36 37 37 42 35 30 29 27 29 30 31 33 34 31 30 33 32 39
14 13 12 12 18 24 26 26 24 26 28 31 29 28 29 31 33 37 36 32 31 27 19 20 32 28 28 31 25 34 33 33 30 29 29 31 33 35 34 34 34 35 36
21 20 20 18 18 21 28 32 33 33 32 32 31 31 35 32 34 32 30 30 25 25 24 26 22 24 30 29 29 26 33 35 34 32 31 33 34 36 38 37 37 37 39
26 26 25 23 25 26 29 30 32 34 32 32 34 37 39 32 36 36 28 25 20 22 25 27 34 23 19 27 32 32 32 34 36 36 35 34 34 36 38 40 39 40 39
27 27 28 27 29 31 30 27 29 30 34 37 42 41 40 39 41 33 21 17 25 25 19 17 24 26 15 20 30 31 32 35 39 38 37 35 34 36 38 40 41 42 42
29 28 28 27 27 29 29 30 32 32 33 36 43 34 33 30 35 13 14 26 18 21 13 12 14 22 26 23 26 32 36 38 38 41 40 37 35 34 38 41 42 43 43
36 36 36 35 35 33 31 32 34 38 41 41 39 33 27 32 4 39 23 29 18 16 21 16 15 16 18 24 28 27 29 32 34 40 41 38 36 33 35 39 41 43 44
38 40 43 45 46 46 43 40 39 41 45 42 43 33 22 15 41 18 33 23 19 31 24 15 18 16 16 19 23 29 30 31 33 36 42 42 36 34 33 35 38 41 43
34 38 41 42 42 43 43 39 39 42 49 56 43 42 43 44 34 36 24 33 38 33 30 31 26 23 19 17 19 21 28 31 31 34 36 42 39 37 34 33 35 39 41
37 37 39 39 40 38 40 43 46 49 51 54 52 45 43 41 46 46 58 39 32 32 33 38 36 32 29 25 23 20 24 29 34 31 33 37 40 41 37 35 35 38 40
36 37 39 39 41 44 47 47 48 50 51 51 51 53 54 45 41 37 46 50 47 46 40 44 41 34 34 32 29 27 25 28 34 36 36 37 43 44 40 41 38 38 40
40 38 38 46 49 52 54 55 57 54 57 60 58 66 66 63 57 50 49 57 54 49 43 49 44 40 37 36 35 32 31 29 29 36 38 41 44 46 45 46 43 40 40
41 41 42 45 51 54 56 58 64 67 62 66 65 61 58 58 58 54 51 46 54 54 48 62 56 42 23 34 36 32 35 33 31 33 40 45 47 52 50 48 49 45 41
43 41 43 48 51 56 62 67 74 75 69 64 64 60 60 59 62 68 64 59 51 55 61 50 41 41 40 36 31 37 40 41 44 47 49 52 54 60 56 54 54 50 46
45 48 47 50 55 59 61 64 65 62 64 64 64 66 64 60 60 62 63 63 59 54 62 54 46 58 55 44 51 40 43 49 56 60 63 63 63 63 65 60 58 57 54
58 58 57 55 55 58 60 59 57 59 62 64 68 69 70 65 62 64 58 59 65 62 61 75 64 75 69 57 45 46 51 60 69 73 68 67 70 66 65 69 62 60 65
55 54 54 57 57 58 59 62 65 64 67 70 70 70 72 66 68 66 66 65 66 69 69 78 74 76 69 57 51 52 57 64 63 59 53 56 64 65 67 68 69 67 70
45 49 53 57 58 59 62 65 66 67 70 72 73 74 77 74 70 72 68 69 69 68 71 74 66 65 57 52 52 54 58 52 48 45 43 44 50 56 61 63 65 71 79
45 51 52 51 55 58 61 63 64 66 67 68 70 71 69 66 72 68 68 70 71 69 72 72 69 59 54 50 56 52 45 45 38 30 34 38 40 46 52 56 57 66 73
40 44 47 50 52 55 56 59 63 65 67 68 68 69 69 71 69 69 69 72 69 68 72 70 71 59 53 45 45 41 35 28 25 28 29 37 29 33 44 53 57 64 71
39 41 44 46 50 53 55 56 56 60 63 66 69 69 67 67 65 66 66 66 71 70 70 65 64 56 52 51 52 39 25 20 18 16 15 12 10 12 19 36 55 58 70
34 39 43 46 47 47 46 46 47 53 56 57 60 61 58 55 58 56 60 58 62 68 67 66 62 63 63 44 43 32 27 33 26 18 18 14 14 12 11 15 3 29 54
40 43 41 40 41 41 43 46 44 46 48 46 51 54 54 55 53 48 51 55 54 58 58 55 51 46 44 38 34 30 29 30 28 25 27 18 15 15 16 16 16 16 15
38 36 34 34 37 38 43 46 48 48 44 42 45 41 41 45 46 46 48 51 51 47 45 39 37 36 32 35 36 34 37 38 33 35 29 19 23 24 24 21 20 20 22
32 33 30 29 31 36 44 42 40 44 41 41 43 41 37 37 36 38 36 40 45 49 50 50 46 45 42 38 30 30 31 35 36 27 28 21 30 25 18 25 27 26 26
Wind_Direction_500mb
265 263 255 252 251 278 303 307 318 325 333 331 333 332 324 322 315 311 314 287 277 259 258 262 266 273 258 258 257 248 246 249 252 251 250 247 247 246 244 238 233 237 227
244 246 253 254 251 265 285 292 308 320 324 328 320 324 328 331 327 323 322 313 299 296 265 255 257 273 266 259 259 245 242 246 248 251 252 250 248 245 244 240 234 239 229
235 249 264 266 261 265 280 285 288 298 310 319 317 318 324 334 334 324 321 316 311 309 290 272 254 258 259 266 244 238 244 243 246 252 250 250 247 243 242 238 234 231 233
249 256 262 265 274 283 286 284 285 291 302 312 314 319 323 323 328 331 321 317 303 287 289 261 251 267 267 252 240 243 244 246 245 247 252 250 247 243 240 238 236 233 229
252 260 268 271 280 282 288 291 289 289 292 303 313 311 318 313 323 325 312 315 318 304 300 266 250 270 267 238 233 239 250 252 250 246 246 249 250 245 240 239 236 236 236
254 261 270 276 283 285 284 294 297 289 290 296 307 308 313 312 316 319 319 324 324 322 311 284 252 256 282 254 242 244 256 261 251 246 246 247 249 248 243 238 239 235 235
246 256 268 279 285 287 282 286 296 303 301 301 305 309 310 315 322 1 336 331 327 337 333 343 301 271 275 269 252 249 251 256 256 246 243 245 248 249 246 240 237 238 238
252 258 267 276 281 284 284 284 289 298 304 307 306 308 317 321 275 318 324 319 315 329 336 319 328 293 287 273 264 258 250 249 251 244 243 242 246 248 248 243 237 236 237
258 264 271 274 278 279 283 287 289 293 297 297 304 301 310 299 317 305 313 324 300 310 319 304 316 315 294 277 268 258 255 260 257 253 244 241 243 244 246 247 240 238 237
268 271 272 272 273 274 275 278 284 288 289 293 292 292 286 286 292 301 299 308 310 305 291 296 295 295 296 277 270 264 256 254 265 257 250 239 238 241 242 246 246 240 237
272 277 270 264 259 257 263 275 284 288 290 291 290 288 284 283 279 272 285 292 291 299 287 282 279 277 276 269 256 262 271 258 255 256 254 247 239 240 239 242 243 242 238
277 279 266 257 255 262 271 279 283 286 289 290 294 295 292 281 279 275 280 287 289 290 285 286 278 271 269 265 263 262 270 263 259 255 249 251 246 243 242 242 242 243 241
272 273 268 261 266 272 274 277 280 282 287 287 289 292 287 284 279 272 273 282 281 281 281 286 283 280 266 262 262 263 263 262 266 257 251 248 249 248 246 244 243 242 243
274 275 271 267 267 271 275 277 276 279 279 281 284 285 283 281 282 280 273 272 279 277 279 285 288 290 262 273 263 258 262 262 264 258 253 252 248 246 245 246 243 241 241
269 270 270 273 274 274 274 275 275 276 278 279 282 284 281 277 276 279 279 278 263 268 273 279 278 278 277 284 271 267 266 266 266 267 266 256 249 244 242 242 242 238 237
264 265 267 272 277 280 284 282 282 283 280 281 282 283 280 276 277 277 278 274 268 260 263 267 270 276 274 284 287 275 276 278 276 274 271 265 252 241 240 237 237 232 232
264 266 271 274 276 281 286 286 282 280 283 285 284 283 281 279 275 273 274 271 266 265 259 273 267 274 279 282 279 279 285 287 287 282 273 262 252 241 238 235 235 234 227
267 270 271 272 278 280 282 282 282 282 283 282 281 280 279 278 276 272 268 265 267 267 267 266 273 272 280 276 280 285 289 289 285 279 271 258 248 241 237 234 236 239 232
268 269 275 284 286 288 288 286 285 284 282 280 280 278 277 274 271 273 272 270 266 267 267 268 264 267 273 269 279 283 288 286 281 276 267 255 246 243 240 239 240 232 232
277 283 286 288 290 291 290 289 288 286 285 282 279 276 275 274 271 266 268 271 269 267 267 266 266 261 263 265 276 286 288 291 282 281 266 256 245 242 240 230 230 228 228
289 298 297 295 295 294 294 293 291 290 288 286 284 282 278 270 265 265 264 264 265 266 262 259 256 255 257 261 277 278 280 285 265 268 261 261 246 240 238 231 228 230 224
302 300 299 300 300 299 297 296 295 294 294 294 294 293 288 282 275 267 264 261 258 261 259 257 253 248 244 253 272 265 258 227 208 207 229 252 232 253 266 260 246 231 228
312 314 316 316 314 312 313 310 305 300 301 304 304 303 293 284 282 270 265 264 257 252 255 257 250 244 236 236 248 229 225 222 218 222 205 176 153 147 129 132 119 233 236
329 327 327 327 326 330 335 330 323 321 316 315 309 303 296 292 289 271 269 266 261 252 242 243 230 230 223 224 215 203 207 209 216 212 190 165 161 150 133 147 148 141 152
342 341 337 332 335 338 330 330 331 324 322 315 317 318 307 297 290 281 269 264 263 246 225 219 214 215 215 208 205 198 197 202 195 193 195 196 162 150 137 134 129 119 114
353 354 351 347 343 343 333 329 327 329 323 322 319 315 313 304 292 279 270 262 254 239 223 205 202 210 206 197 198 195 205 192 196 183 201 176 165 150 131 132 125 120 121
Wind_Speed_850mb
21 20 17 18 19 18 19 20 19 18 20 17 18 21 23 27 25 27 28 27 28 39 37 30 36 41 30 32 29 31 27 25 26 28 31 34 35 33 31 29 35 34 42
11 13 17 21 24 22 20 19 20 17 22 25 24 25 28 31 32 27 27 25 26 24 35 38 33 36 37 37 42 35 30 29 27 29 30 31 33 34 31 30 33 32 39
14 13 12 12 18 24 26 26 24 26 28 31 29 28 29 31 33 37 36 32 31 27 19 20 32 28 28 31 25 34 33 33 30 29 29 31 33 35 34 34 34 35 36
21 20 20 18 18 21 28 32 33 33 32 32 31 31 35 32 34 32 30 30 25 25 24 26 22 24 30 29 29 26 33 35 34 32 31 33 34 36 38 37 37 37 39
26 26 25 23 25 26 29 30 32 34 32 32 34 37 39 32 36 36 28 25 20 22 25 27 34 23 19 27 32 32 32 34 36 36 35 34 34 36 38 40 39 40 39
27 27 28 27 29 31 30 27 29 30 34 37 42 41 40 39 41 33 21 17 25 25 19 17 24 26 15 20 30 31 32 35 39 38 37 35 34 36 38 40 41 42 42
29 28 28 27 27 29 29 30 32 32 33 36 43 34 33 30 35 13 14 26 18 21 13 12 14 22 26 23 26 32 36 38 38 41 40 37 35 34 38 41 42 43 43
36 36 36 35 35 33 31 32 34 38 41 41 39 33 27 32 4 39 23 29 18 16 21 16 15 16 18 24 28 27 29 32 34 40 41 38 36 33 35 39 41 43 44
38 40 43 45 46 46 43 40 39 41 45 42 43 33 22 15 41 18 33 23 19 31 24 15 18 16 16 19 23 29 30 31 33 36 42 42 36 34 33 35 38 41 43
34 38 41 42 42 43 43 39 39 42 49 56 43 42 43 44 34 36 24 33 38 33 30 31 26 23 19 17 19 21 28 31 31 34 36 42 39 37 34 33 35 39 41
37 37 39 39 40 38 40 43 46 49 51 54 52 45 43 41 46 46 58 39 32 32 33 38 36 32 29 25 23 20 24 29 34 31 33 37 40 41 37 35 35 38 40
36 37 39 39 41 44 47 47 48 50 51 51 51 53 54 45 41 37 46 50 47 46 40 44 41 34 34 32 29 27 25 28 34 36 36 37 43 44 40 41 38 38 40
40 38 38 46 49 52 54 55 57 54 57 60 58 66 66 63 57 50 49 57 54 49 43 49 44 40 37 36 35 32 31 29 29 36 38 41 44 46 45 46 43 40 40
41 41 42 45 51 54 56 58 64 67 62 66 65 61 58 58 58 54 51 46 54 54 48 62 56 42 23 34 36 32 35 33 31 33 40 45 47 52 50 48 49 45 41
43 41 43 48 51 56 62 67 74 75 69 64 64 60 60 59 62 68 64 59 51 55 61 50 41 41 40 36 31 37 40 41 44 47 49 52 54 60 56 54 54 50 46
45 48 47 50 55 59 61 64 65 62 64 64 64 66 64 60 60 62 63 63 59 54 62 54 46 58 55 44 51 40 43 49 56 60 63 63 63 63 65 60 58 57 54
58 58 57 55 55 58 60 59 57 59 62 64 68 69 70 65 62 64 58 59 65 62 61 75 64 75 69 57 45 46 51 60 69 73 68 67 70 66 65 69 62 60 65
55 54 54 57 57 58 59 62 65 64 67 70 70 70 72 66 68 66 66 65 66 69 69 78 74 76 69 57 51 52 57 64 63 59 53 56 64 65 67 68 69 67 70
45 49 53 57 58 59 62 65 66 67 70 72 73 74 77 74 70 72 68 69 69 68 71 74 66 65 57 52 52 54 58 52 48 45 43 44 50 56 61 63 65 71 79
45 51 52 51 55 58 61 63 64 66 67 68 70 71 69 66 72 68 68 70 71 69 72 72 69 59 54 50 56 52 45 45 38 30 34 38 40 46 52 56 57 66 73
40 44 47 50 52 55 56 59 63 65 67 68 68 69 69 71 69 69 69 72 69 68 72 70 71 59 53 45 45 41 35 28 25 28 29 37 29 33 44 53 57 64 71
39 41 44 46 50 53 55 56 56 60 63 66 69 69 67 67 65 66 66 66 71 70 70 65 64 56 52 51 52 39 25 20 18 16 15 12 10 12 19 36 55 58 70
34 39 43 46 47 47 46 46 47 53 56 57 60 61 58 55 58 56 60 58 62 68 67 66 62 63 63 44 43 32 27 33 26 18 18 14 14 12 11 15 3 29 54
40 43 41 40 41 41 43 46 44 46 48 46 51 54 54 55 53 48 51 55 54 58 58 55 51 46 44 38 34 30 29 30 28 25 27 18 15 15 16 16 16 16 15
38 36 34 34 37 38 43 46 48 48 44 42 45 41 41 45 46 46 48 51 51 47 45 39 37 36 32 35 36 34 37 38 33 35 29 19 23 24 24 21 20 20 22
32 33 30 29 31 36 44 42 40 44 41 41 43 41 37 37 36 38 36 40 45 49 50 50 46 45 42 38 30 30 31 35 36 27 28 21 30 25 18 25 27 26 26
Wind_Direction_850mb
265 263 255 252 251 278 303 307 318 325 333 331 333 332 324 322 315 311 314 287 277 259 258 262 266 273 258 258 257 248 246 249 252 251 250 247 247 246 244 238 233 237 227
244 246 253 254 251 265 285 292 308 320 324 328 320 324 328 331 327 323 322 313 299 296 265 255 257 273 266 259 259 245 242 246 248 251 252 250 248 245 244 240 234 239 229
235 249 264 266 261 265 280 285 288 298 310 319 317 318 324 334 334 324 321 316 311 309 290 272 254 258 259 266 244 238 244 243 246 252 250 250 247 243 242 238 234 231 233
249 256 262 265 274 283 286 284 285 291 302 312 314 319 323 323 328 331 321 317 303 287 289 261 251 267 267 252 240 243 244 246 245 247 252 250 247 243 240 238 236 233 229
252 260 268 271 280 282 288 291 289 289 292 303 313 311 318 313 323 325 312 315 318 304 300 266 250 270 267 238 233 239 250 252 250 246 246 249 250 245 240 239 236 236 236
254 261 270 276 283 285 284 294 297 289 290 296 307 308 313 312 316 319 319 324 324 322 311 284 252 256 282 254 242 244 256 261 251 246 246 247 249 248 243 238 239 235 235
246 256 268 279 285 287 282 286 296 303 301 301 305 309 310 315 322 1 336 331 327 337 333 343 301 271 275 269 252 249 251 256 256 246 243 245 248 249 246 240 237 238 238
252 258 267 276 281 284 284 284 289 298 304 307 306 308 317 321 275 318 324 319 315 329 336 319 328 293 287 273 264 258 250 249 251 244 243 242 246 248 248 243 237 236 237
258 264 271 274 278 279 283 287 289 293 297 297 304 301 310 299 317 305 313 324 300 310 319 304 316 315 294 277 268 258 255 260 257 253 244 241 243 244 246 247 240 238 237
268 271 272 272 273 274 275 278 284 288 289 293 292 292 286 286 292 301 299 308 310 305 291 296 295 295 296 277 270 264 256 254 265 257 250 239 238 241 242 246 246 240 237
272 277 270 264 259 257 263 275 284 288 290 291 290 288 284 283 279 272 285 292 291 299 287 282 279 277 276 269 256 262 271 258 255 256 254 247 239 240 239 242 243 242 238
277 279 266 257 255 262 271 279 283 286 289 290 294 295 292 281 279 275 280 287 289 290 285 286 278 271 269 265 263 262 270 263 259 255 249 251 246 243 242 242 242 243 241
272 273 268 261 266 272 274 277 280 282 287 287 289 292 287 284 279 272 273 282 281 281 281 286 283 280 266 262 262 263 263 262 266 257 251 248 249 248 246 244 243 242 243
274 275 271 267 267 271 275 277 276 279 279 281 284 285 283 281 282 280 273 272 279 277 279 285 288 290 262 273 263 258 262 262 264 258 253 252 248 246 245 246 243 241 241
269 270 270 273 274 274 274 275 275 276 278 279 282 284 281 277 276 279 279 278 263 268 273 279 278 278 277 284 271 267 266 266 266 267 266 256 249 244 242 242 242 238 237
264 265 267 272 277 280 284 282 282 283 280 281 282 283 280 276 277 277 278 274 268 260 263 267 270 276 274 284 287 275 276 278 276 274 271 265 252 241 240 237 237 232 232
264 266 271 274 276 281 286 286 282 280 283 285 284 283 281 279 275 273 274 271 266 265 259 273 267 274 279 282 279 279 285 287 287 282 273 262 252 241 238 235 235 234 227
267 270 271 272 278 280 282 282 282 282 283 282 281 280 279 278 276 272 268 265 267 267 267 266 273 272 280 276 280 285 289 289 285 279 271 258 248 241 237 234 236 239 232
268 269 275 284 286 288 288 286 285 284 282 280 280 278 277 274 271 273 272 270 266 267 267 268 264 267 273 269 279 283 288 286 281 276 267 255 246 243 240 239 240 232 232
277 283 286 288 290 291 290 289 288 286 285 282 279 276 275 274 271 266 268 271 269 267 267 266 266 261 263 265 276 286 288 291 282 281 266 256 245 242 240 230 230 228 228
289 298 297 295 295 294 294 293 291 290 288 286 284 282 278 270 265 265 264 264 265 266 262 259 256 255 257 261 277 278 280 285 265 268 261 261 246 240 238 231 228 230 224
302 300 299 300 300 299 297 296 295 294 294 294 294 293 288 282 275 267 264 261 258 261 259 257 253 248 244 253 272 265 258 227 208 207 229 252 232 253 266 260 246 231 228
312 314 316 316 314 312 313 310 305 300 301 304 304 303 293 284 282 270 265 264 257 252 255 257 250 244 236 236 248 229 225 222 218 222 205 176 153 147 129 132 119 233 236
329 327 327 327 326 330 335 330 323 321 316 315 309 303 296 292 289 271 269 266 261 252 242 243 230 230 223 224 215 203 207 209 216 212 190 165 161 150 133 147 148 141 152
342 341 337 332 335 338 330 330 331 324 322 315 317 318 307 297 290 281 269 264 263 246 225 219 214 215 215 208 205 198 197 202 195 193 195 196 162 150 137 134 129 119 114
353 354 351 347 343 343 333 329 327 329 323 322 319 315 313 304 292 279 270 262 254 239 223 205 202 210 206 197 198 195 205 192 196 183 201 176 165 150 131 132 125 120 121